Regional Weather Roundup
Issued by NWS

Home | Current Version | Previous Version | Graphics & Text | Print | Product List | Glossary On
Versions: 1 2 3 4 5 6 7 8 9 10 11 12 13 14 15 16 17 18 19 20 21 22 23 24 25 26 27 28 29 30 31 32 33 34 35 36 37 38 39 40 41 42 43 44 45 46 47 48 49 50
000
ASUS43 KLMK 182202
RWRKY
KENTUCKY REGIONAL WEATHER ROUNDUP
NATIONAL WEATHER SERVICE LOUISVILLE KY
600 PM EDT FRI AUG 18 2017

NOTE "FAIR" INDICATES FEW OR NO CLOUDS BELOW 12,000 FEET
WITH NO SIGNIFICANT WEATHER AND/OR OBSTRUCTIONS TO VISIBILITY.

KYZ001>023-026-027-061>063-070>075-182300-
WESTERN AND SOUTH CENTRAL KENTUCKY

CITY           SKY/WX    TMP DP  RH WIND       PRES   REMARKS
PADUCAH        SUNNY     87  61  41 CALM      29.94S
HENDERSON      SUNNY     84  67  56 W8        29.95S
OWENSBORO      SUNNY     86  67  52 W8        29.95S
HOPKINSVILLE   SUNNY     85  64  48 NW6       29.96R
BOWLING GREEN  MOSUNNY   86  64  47 W9        29.95S
GLASGOW        SUNNY     86  62  45 W3        29.96S
$$

KYZ024-025-028>034-038-045-046-053-182300-
NORTH CENTRAL KENTUCKY

CITY           SKY/WX    TMP DP  RH WIND       PRES   REMARKS
LOUISVILLE/SDF MOSUNNY   87  63  44 W10       29.92S
LOUISVILLE/LOU SUNNY     85  64  49 W13       29.92S
FORT KNOX      SUNNY     83  64  51 W6        29.93S
$$

KYZ035>037-039>044-047>052-055>060-089>105-182300-
NORTHEAST KENTUCKY

CITY           SKY/WX    TMP DP  RH WIND       PRES   REMARKS
LEXINGTON      PTSUNNY   84  63  49 W14       29.94S
COVINGTON      MOSUNNY   83  64  52 W10       29.91S
FRANKFORT      MOSUNNY   85  60  42 W8        29.92S
$$

KYZ054-064>069-076>088-106>120-182300-
SOUTHEAST KENTUCKY

CITY           SKY/WX    TMP DP  RH WIND       PRES   REMARKS
JACKSON        SUNNY     81  63  54 NW7       29.96R
LONDON         SUNNY     83  63  50 W9        29.97R
SOMERSET       NOT AVBL
MIDDLESBORO    MOSUNNY   85  66  52 NW9       29.96S
MONTICELLO     PTCLDY    81  68  64 W7        29.99R
$$




USA.gov is the U.S. government's official web portal to all federal, state and local government web resources and services.